Location: Brodeslavy
(49.9527°N, 13.5567°E)
Time: 16:29:55
(UTC+00:00)

Cosmos 2292 Rocket - Pass Details

Date: 17 June 2025
Orbit: 370 x 1262 km, 83.0° (Epoch: 20 July)

Event Time Altitude Azimuth Distance (km) Brightness Sun altitude
Exits shadow 21:14:12 24° 153° (SSE) 817 3.6 -12.5°
Maximum altitude 21:15:33 43° 94° (E) 539 3.0 -12.6°
Drops below altitude 10° 21:18:23 10° 21° (NNE) 1,413 6.1 -12.8°
Sets 21:20:28 0° 15° (NNE) 2,323 7.4 -12.9°
